Weather History for KINT - November, 2012

Change the Weather History Date:

Saturday, November 17, 2012

  Actual Average Record
Temperature  
Mean Temperature 46 °F -  
Max Temperature 55 °F 57 °F 77 °F (1991)
Min Temperature 36 °F 39 °F 20 °F (1967)
Degree Days  
Heating Degree Days 20    
Moisture  
Dew Point 25 °F    
Average Humidity 48    
Maximum Humidity 73    
Minimum Humidity 25    
Precipitation  
Precipitation 0.00 in - - ()
Sea Level Pressure  
Sea Level Pressure 30.47 in    
Wind  
Wind Speed 9 mph (NE)    
Max Wind Speed 16 mph    
Max Gust Speed 22 mph    
Visibility 10 miles    
Events      
Averages and records for this station are not official NWS values.
T = Trace of Precipitation, MM = Missing Value Source: NWS Daily Summary

Daily Weather History Graph

Daily Weather History Graph

Search for Another Location

Airport or City:

Trip Planner

Search our weather history database for the weather conditions in past years. The results will help you decide how hot, cold, wet, or windy it might be!

Date:

Astronomy

Nov. 17, 2012 Rise Set
Actual Time 7:00 AM EST 5:11 PM EST
Civil Twilight 6:32 AM EST 5:38 PM EST
Nautical Twilight 6:01 AM EST 6:10 PM EST
Astronomical Twilight 5:31 AM EST 6:40 PM EST
Moon 10:43 AM EST (11/17) 9:19 PM EST (11/17)
Length of Visible Light 11h 06m
Length of Day
10h 11m
Waxing Crescent, 20% of the Moon is Illuminated
Nov 17
Waxing Crescent
Nov 20
First Quarter
Nov 28
Full
Dec 6
Last Quarter
Dec 13
New

Hourly Weather History & Observations

Time (EST) Temp. Windchill Dew Point Humidity Pressure Visibility Wind Dir Wind Speed Gust Speed Precip Events Conditions
12:54 AM 37.9 °F 32.7 °F 28.9 °F 70% 30.42 in 10.0 mi North 6.9 mph - N/A   Clear
1:54 AM 37.0 °F 32.4 °F 28.0 °F 70% 30.42 in 10.0 mi NNE 5.8 mph - N/A   Clear
2:54 AM 37.0 °F 31.6 °F 28.0 °F 70% 30.43 in 10.0 mi North 6.9 mph - N/A   Clear
3:54 AM 37.0 °F 32.4 °F 28.0 °F 70% 30.43 in 10.0 mi NNE 5.8 mph - N/A   Clear
4:54 AM 37.0 °F 32.4 °F 28.0 °F 70% 30.45 in 10.0 mi NNE 5.8 mph - N/A   Clear
5:54 AM 37.0 °F 31.6 °F 28.0 °F 70% 30.46 in 10.0 mi NNE 6.9 mph - N/A   Clear
6:54 AM 36.0 °F 28.5 °F 28.0 °F 73% 30.47 in 10.0 mi NNE 10.4 mph - N/A   Clear
7:54 AM 37.9 °F 31.5 °F 28.0 °F 68% 30.50 in 10.0 mi NNE 9.2 mph - N/A   Clear
8:54 AM 41.0 °F 33.9 °F 28.0 °F 60% 30.51 in 10.0 mi NNE 12.7 mph - N/A   Clear
9:54 AM 45.0 °F 39.3 °F 27.0 °F 49% 30.52 in 10.0 mi NNE 11.5 mph 20.7 mph N/A   Clear
10:54 AM 48.9 °F - 25.0 °F 39% 30.51 in 10.0 mi NNE 16.1 mph 21.9 mph N/A   Clear
11:54 AM 51.1 °F - 24.1 °F 35% 30.48 in 10.0 mi ENE 10.4 mph 19.6 mph N/A   Clear
12:54 PM 53.1 °F - 23.0 °F 31% 30.47 in 10.0 mi NE 13.8 mph - N/A   Clear
1:54 PM 55.0 °F - 21.0 °F 27% 30.44 in 10.0 mi ENE 8.1 mph - N/A   Clear
2:54 PM 55.0 °F - 21.0 °F 27% 30.43 in 10.0 mi NE 10.4 mph 20.7 mph N/A   Clear
3:54 PM 54.0 °F - 19.0 °F 25% 30.45 in 10.0 mi ENE 11.5 mph 19.6 mph N/A   Clear
4:54 PM 53.1 °F - 19.0 °F 26% 30.46 in 10.0 mi NE 9.2 mph - N/A   Clear
5:54 PM 50.0 °F - 19.9 °F 31% 30.47 in 10.0 mi NE 6.9 mph - N/A   Clear
6:54 PM 48.9 °F - 21.0 °F 33% 30.48 in 10.0 mi NE 6.9 mph - N/A   Clear
7:54 PM 48.9 °F - 21.9 °F 35% 30.49 in 10.0 mi NE 10.4 mph 18.4 mph N/A   Clear
8:54 PM 46.9 °F - 21.9 °F 37% 30.50 in 10.0 mi NE 10.4 mph - N/A   Clear
9:54 PM 46.0 °F 41.4 °F 23.0 °F 40% 30.50 in 10.0 mi NE 9.2 mph - N/A   Clear
10:54 PM 45.0 °F 38.9 °F 25.0 °F 46% 30.48 in 10.0 mi NNE 12.7 mph 18.4 mph N/A   Clear
11:54 PM 43.0 °F 37.7 °F 25.0 °F 49% 30.49 in 10.0 mi NE 9.2 mph - N/A   Clear